GW5703 Weather Reports


Display with metric or nautical units.
time (UTC)temp
F
wind
direction
speed
MPH
gust
MPH
rain 1hr
in
rain 24hr
in
rain mn
in
humidity
%
barometer
mb
20260503212024 50 225 3.0 4.0 0.00 0.00 0.00 27 1017.7
20260503211022 50 248 2.0 3.0 0.00 0.00 0.00 26 1017.8
20260503210022 51 113 2.0 3.0 0.00 0.00 0.00 26 1017.7
20260503205021 50 203 5.0 9.0 0.00 0.00 0.00 27 1017.7
20260503204022 51 158 2.0 4.0 0.00 0.00 0.00 26 1017.7
20260503203023 51 158 4.0 6.0 0.00 0.00 0.00 27 1017.8
20260503202022 52 135 3.0 4.0 0.00 0.00 0.00 26 1017.9
20260503201021 51 135 1.0 2.0 0.00 0.00 0.00 28 1017.9
20260503200022 52 113 1.0 2.0 0.00 0.00 0.00 28 1018.0
20260503195021 50 68 3.0 3.0 0.00 0.00 0.00 27 1018.0
20260503194022 51 180 5.0 6.0 0.00 0.00 0.00 27 1018.1
20260503193022 50 158 5.0 8.0 0.00 0.00 0.00 26 1018.2
20260503192021 49 180 4.0 7.0 0.00 0.00 0.00 29 1018.3
20260503191022 50 113 4.0 6.0 0.00 0.00 0.00 28 1018.3
20260503190024 49 135 6.0 7.0 0.00 0.00 0.00 29 1018.3
20260503185021 49 225 3.0 4.0 0.00 0.00 0.00 29 1018.4
20260503184022 50 158 2.0 4.0 0.00 0.00 0.00 28 1018.7
20260503183021 49 180 2.0 3.0 0.00 0.00 0.00 30 1018.7
20260503182022 47 158 3.0 5.0 0.00 0.00 0.00 31 1018.7
20260503181024 48 203 3.0 3.0 0.00 0.00 0.00 31 1018.8
20260503180022 48 270 3.0 4.0 0.00 0.00 0.00 32 1018.6
20260503175026 47 135 3.0 5.0 0.00 0.00 0.00 33 1018.8
20260503174023 47 135 3.0 5.0 0.00 0.00 0.00 32 1018.7
20260503173023 47 135 5.0 7.0 0.00 0.00 0.00 32 1018.6
20260503172022 47 135 3.0 5.0 0.00 0.00 0.00 33 1018.5
20260503171023 45 203 6.0 7.0 0.00 0.00 0.00 36 1018.6
20260503131022 33 225 7.0 7.0 0.00 0.00 0.00 61 1018.0
20260503081022 28 203 4.0 6.0 0.00 0.00 0.00 76 1015.1
20260503072022 29 203 5.0 6.0 0.00 0.00 0.00 74 1015.0
20260503071021 29 180 1.0 2.0 0.00 0.00 0.00 74 1014.8
20260503055021 30 203 5.0 5.0 0.00 0.00 0.00 75 1015.2
20260503054028 31 203 5.0 5.0 0.00 0.00 0.00 75 1015.1
20260503053024 31 180 6.0 7.0 0.00 0.00 0.00 75 1015.2
20260503052022 31 158 4.0 5.0 0.00 0.00 0.00 74 1015.3
20260503051022 30 203 6.0 7.0 0.00 0.00 0.00 74 1015.3
20260503050022 31 180 5.0 6.0 0.00 0.00 0.00 72 1015.3
20260503045022 31 203 5.0 6.0 0.00 0.00 0.00 72 1015.3
20260503044022 31 203 4.0 4.0 0.00 0.00 0.00 71 1015.3
20260503043022 31 180 5.0 6.0 0.00 0.00 0.00 70 1015.4
20260503042022 31 203 4.0 5.0 0.00 0.00 0.00 69 1015.4
20260503041021 32 248 1.0 2.0 0.00 0.00 0.00 70 1015.6
20260503040026 32 203 5.0 6.0 0.00 0.00 0.00 68 1015.5
20260503035022 32 180 4.0 5.0 0.00 0.00 0.00 67 1015.5
20260503034021 32 203 4.0 5.0 0.00 0.00 0.00 67 1015.5
20260503033022 32 203 3.0 4.0 0.00 0.00 0.00 67 1015.5
20260503032021 32 203 2.0 4.0 0.00 0.00 0.00 67 1015.5
20260503031022 32 158 4.0 5.0 0.00 0.00 0.00 67 1015.3
20260503030022 32 180 5.0 7.0 0.00 0.00 0.00 66 1015.1
20260503025022 32 158 3.0 6.0 0.00 0.00 0.00 67 1015.2
20260503024022 32 180 5.0 6.0 0.00 0.00 0.00 67 1015.2
20260503023021 32 203 4.0 6.0 0.00 0.00 0.00 66 1015.3
20260503022022 32 135 2.0 5.0 0.00 0.00 0.00 66 1015.3
20260503021022 33 180 2.0 3.0 0.00 0.00 0.00 65 1015.2
20260503020022 33 113 3.0 5.0 0.00 0.00 0.00 64 1015.3
20260503015022 33 180 5.0 7.0 0.00 0.00 0.00 63 1015.3
20260503014021 33 180 4.0 5.0 0.00 0.00 0.00 62 1015.2
20260503013024 33 180 4.0 5.0 0.00 0.00 0.00 62 1015.1
20260503012022 34 158 3.0 3.0 0.00 0.00 0.00 61 1015.1
20260503011024 34 113 2.0 3.0 0.00 0.00 0.00 60 1015.0
20260503010021 34 113 5.0 7.0 0.00 0.00 0.00 58 1015.0
20260503005022 34 158 4.0 5.0 0.00 0.00 0.00 57 1014.9
20260503004021 35 113 6.0 8.0 0.00 0.00 0.00 55 1014.7
20260503003022 35 158 4.0 5.0 0.00 0.00 0.00 53 1014.6
20260503002024 36 135 3.0 4.0 0.00 0.00 0.00 53 1014.4
20260503001022 36 180 1.0 2.0 0.00 0.00 0.00 53 1014.3
20260503000022 37 90 4.0 6.0 0.00 0.00 0.00 53 1014.3
20260502235022 37 90 3.0 5.0 0.00 0.00 0.00 52 1014.3
20260502234022 37 158 7.0 9.0 0.00 0.00 0.00 52 1014.1
20260502233023 37 225 3.0 4.0 0.00 0.00 0.00 51 1014.2
20260502232022 38 113 3.0 5.0 0.00 0.00 0.00 50 1014.0
20260502231021 38 203 4.0 5.0 0.00 0.00 0.00 49 1014.1
20260502230024 39 113 2.0 3.0 0.00 0.00 0.00 48 1014.1
20260502225024 40 113 4.0 4.0 0.00 0.00 0.00 47 1013.9
20260502224021 41 113 2.0 5.0 0.00 0.00 0.00 45 1014.0
20260502223022 42 158 3.0 5.0 0.00 0.00 0.00 45 1014.0
20260502222021 42 180 4.0 5.0 0.00 0.00 0.00 46 1013.9
20260502221022 43 113 2.0 2.0 0.00 0.00 0.00 45 1013.9
20260502220023 44 203 7.0 10.0 0.00 0.00 0.00 42 1014.0
20260502215022 45 180 4.0 7.0 0.00 0.00 0.00 41 1013.8
20260502214021 45 68 5.0 5.0 0.00 0.00 0.00 41 1013.8
20260502213022 45 360 2.0 3.0 0.00 0.00 0.00 42 1013.7